BAW9024 LPAZ-EGLL

Flight info

Callsign BAW9024
Flight time N/A
Altitude 37000
Route BEKUN DCT LENSI DCT LUPOV/M080F380 T13 NILAV/M080F370 DCT REGHI/N0460F380 DCT ORIST/N0459F370 DCT ERGUM L982 ROXOG
Aircraft CONC/H-SDE2E3FGHIRYW/X

Departure

Time N/A
Airport Santa Maria Airport (LPAZ)

Arrival

Time 2026-05-07 19:42
Airport London Heathrow Airport (EGLL)
Time Latitude Longitude Altitude Speed Heading
2026-05-07 19:02 48.75713 -5.84266 44413 ft 891 kts 63°
2026-05-07 19:03 48.78486 -5.76011 43589 ft 876 kts 63°
2026-05-07 19:03 48.81204 -5.67894 42748 ft 861 kts 63°
2026-05-07 19:03 48.83860 -5.59936 41885 ft 846 kts 63°
2026-05-07 19:03 48.86467 -5.52101 41009 ft 831 kts 63°
2026-05-07 19:04 48.89034 -5.44362 40152 ft 817 kts 63°
2026-05-07 19:04 48.91569 -5.36694 39324 ft 803 kts 63°
2026-05-07 19:04 48.94050 -5.29171 38533 ft 792 kts 63°
2026-05-07 19:04 48.96473 -5.21802 37820 ft 779 kts 63°
2026-05-07 19:05 48.98869 -5.14493 37096 ft 767 kts 63°
2026-05-07 19:05 49.01217 -5.07310 36398 ft 755 kts 64°
2026-05-07 19:05 49.03523 -5.00236 35710 ft 744 kts 64°
2026-05-07 19:05 49.05767 -4.93335 35004 ft 735 kts 64°
2026-05-07 19:06 49.08023 -4.86376 34287 ft 726 kts 64°
2026-05-07 19:06 49.12423 -4.72745 33563 ft 715 kts 64°
2026-05-07 19:06 49.14546 -4.66148 33216 ft 658 kts 64°
2026-05-07 19:07 49.16524 -4.59995 32935 ft 636 kts 64°
2026-05-07 19:07 49.18452 -4.53973 32902 ft 633 kts 65°
2026-05-07 19:07 49.20390 -4.47889 33036 ft 638 kts 64°
2026-05-07 19:07 49.22307 -4.41853 33025 ft 641 kts 64°
2026-05-07 19:08 49.26190 -4.29607 32984 ft 641 kts 65°
2026-05-07 19:08 49.30040 -4.17413 32982 ft 640 kts 65°
2026-05-07 19:09 49.33886 -4.05164 32989 ft 640 kts 65°
2026-05-07 19:09 49.37735 -3.92851 32988 ft 640 kts 65°
2026-05-07 19:10 49.41534 -3.80638 32985 ft 639 kts 65°
2026-05-07 19:10 49.45340 -3.68338 32987 ft 639 kts 65°
2026-05-07 19:11 49.49117 -3.56072 32986 ft 640 kts 65°
2026-05-07 19:11 49.52890 -3.43756 32987 ft 639 kts 65°
2026-05-07 19:12 49.56671 -3.31354 32990 ft 639 kts 66°
2026-05-07 19:12 49.60406 -3.19041 32989 ft 638 kts 66°
2026-05-07 19:13 49.64142 -3.06663 32993 ft 638 kts 66°
2026-05-07 19:13 49.67857 -2.94288 32991 ft 638 kts 66°
2026-05-07 19:14 49.71549 -2.81929 32995 ft 637 kts 66°
2026-05-07 19:14 49.75243 -2.69502 32995 ft 637 kts 66°
2026-05-07 19:15 49.78904 -2.57118 33001 ft 638 kts 66°
2026-05-07 19:15 49.82578 -2.44630 33009 ft 639 kts 66°
2026-05-07 19:16 49.86219 -2.32187 33013 ft 639 kts 67°
2026-05-07 19:16 49.89860 -2.19680 33013 ft 638 kts 66°
2026-05-07 19:17 49.93461 -2.07248 33019 ft 637 kts 66°
2026-05-07 19:17 49.97184 -1.94782 33008 ft 638 kts 61°
2026-05-07 19:18 49.99647 -1.89097 33023 ft 638 kts 50°
2026-05-07 19:18 50.02710 -1.84150 33064 ft 640 kts 41°
2026-05-07 19:18 50.10080 -1.76532 33038 ft 639 kts 26°
2026-05-07 19:19 50.17459 -1.68969 33026 ft 639 kts 41°
2026-05-07 19:19 50.24176 -1.59919 33004 ft 641 kts 37°
2026-05-07 19:20 50.27814 -1.55849 32445 ft 638 kts 33°
2026-05-07 19:20 50.31523 -1.52207 31744 ft 629 kts 30°
2026-05-07 19:20 50.35304 -1.48859 31121 ft 622 kts 28°
2026-05-07 19:20 50.39042 -1.45609 30495 ft 616 kts 29°
2026-05-07 19:21 50.42696 -1.42280 29859 ft 610 kts 30°
2026-05-07 19:21 50.46339 -1.38922 29217 ft 605 kts 29°
2026-05-07 19:21 50.49923 -1.35652 28715 ft 596 kts 29°
2026-05-07 19:21 50.53539 -1.32386 29009 ft 596 kts 30°
2026-05-07 19:22 50.57140 -1.29142 28241 ft 599 kts 30°
2026-05-07 19:22 50.60776 -1.26031 27662 ft 595 kts 23°
2026-05-07 19:22 50.64517 -1.23477 27213 ft 593 kts 27°
2026-05-07 19:22 50.68035 -1.20165 26303 ft 587 kts 33°
2026-05-07 19:23 50.71409 -1.16711 25551 ft 580 kts 32°
2026-05-07 19:23 50.74885 -1.13352 24542 ft 575 kts 26°
2026-05-07 19:23 50.78483 -1.10876 23512 ft 569 kts 19°
2026-05-07 19:23 50.82200 -1.08864 22486 ft 562 kts 18°
2026-05-07 19:24 50.85860 -1.06910 21461 ft 555 kts 18°
2026-05-07 19:24 50.89445 -1.04907 20418 ft 548 kts 19°
2026-05-07 19:24 50.92976 -1.02871 19356 ft 540 kts 19°
2026-05-07 19:24 50.96564 -1.00769 18288 ft 547 kts 20°
2026-05-07 19:25 50.99969 -0.98379 17262 ft 540 kts 30°
2026-05-07 19:25 51.02925 -0.94850 16794 ft 526 kts 46°
2026-05-07 19:25 51.05249 -0.90551 16420 ft 506 kts 52°
2026-05-07 19:25 51.07427 -0.86272 16164 ft 488 kts 49°
2026-05-07 19:26 51.09602 -0.82316 16043 ft 471 kts 48°
2026-05-07 19:26 51.11810 -0.78647 15993 ft 448 kts 46°
2026-05-07 19:26 51.13780 -0.75012 15990 ft 416 kts 53°
2026-05-07 19:26 51.15115 -0.71318 15845 ft 354 kts 74°
2026-05-07 19:27 51.15419 -0.67914 15288 ft 272 kts 97°
2026-05-07 19:27 51.15293 -0.65573 14354 ft 172 kts 97°
2026-05-07 19:27 51.15578 -0.63374 11921 ft 314 kts 85°
2026-05-07 19:27 51.15602 -0.60283 10119 ft 249 kts 98°
2026-05-07 19:28 51.15374 -0.57487 9591 ft 279 kts 97°
2026-05-07 19:28 51.15231 -0.54334 9275 ft 289 kts 90°
2026-05-07 19:28 51.15222 -0.51168 8903 ft 283 kts 91°
2026-05-07 19:28 51.15207 -0.48081 8527 ft 279 kts 90°
2026-05-07 19:29 51.15189 -0.45029 8228 ft 276 kts 90°
2026-05-07 19:29 51.15170 -0.41964 8104 ft 274 kts 90°
2026-05-07 19:29 51.15153 -0.38975 8021 ft 273 kts 90°
2026-05-07 19:29 51.15132 -0.35929 8041 ft 273 kts 90°
2026-05-07 19:30 51.15109 -0.32924 8055 ft 274 kts 91°
2026-05-07 19:30 51.15086 -0.29876 8046 ft 274 kts 91°
2026-05-07 19:30 51.15352 -0.26895 8063 ft 275 kts 64°
2026-05-07 19:30 51.16559 -0.24582 8148 ft 278 kts 28°
2026-05-07 19:31 51.18388 -0.23792 8151 ft 280 kts 353°
2026-05-07 19:31 51.20186 -0.24841 8148 ft 279 kts 317°
2026-05-07 19:31 51.21507 -0.27079 8106 ft 278 kts 310°
2026-05-07 19:31 51.22780 -0.29406 8037 ft 276 kts 311°
2026-05-07 19:32 51.24046 -0.31682 8056 ft 276 kts 311°
2026-05-07 19:32 51.25320 -0.33969 8057 ft 276 kts 311°
2026-05-07 19:32 51.26529 -0.36310 8056 ft 276 kts 302°
2026-05-07 19:32 51.27543 -0.38909 7820 ft 276 kts 301°
2026-05-07 19:33 51.28523 -0.41465 7411 ft 249 kts 301°
2026-05-07 19:33 51.29379 -0.43728 7043 ft 234 kts 301°
2026-05-07 19:33 51.30199 -0.45930 7023 ft 230 kts 301°
2026-05-07 19:33 51.31014 -0.48111 7066 ft 232 kts 301°
2026-05-07 19:34 51.31836 -0.50321 7047 ft 233 kts 301°
2026-05-07 19:34 51.32663 -0.52551 7041 ft 233 kts 301°
2026-05-07 19:34 51.33496 -0.54784 6874 ft 236 kts 301°
2026-05-07 19:34 51.34330 -0.57018 6543 ft 233 kts 301°
2026-05-07 19:35 51.35158 -0.59239 6218 ft 231 kts 301°
2026-05-07 19:35 51.35979 -0.61440 5896 ft 232 kts 301°
2026-05-07 19:35 51.36650 -0.63740 5586 ft 231 kts 282°
2026-05-07 19:35 51.36956 -0.66248 5270 ft 229 kts 280°
2026-05-07 19:36 51.37256 -0.68725 4895 ft 228 kts 281°
2026-05-07 19:36 51.37557 -0.71210 4517 ft 227 kts 281°
2026-05-07 19:36 51.37857 -0.73657 4234 ft 225 kts 281°
2026-05-07 19:36 51.38226 -0.76092 4102 ft 225 kts 297°
2026-05-07 19:37 51.39268 -0.77863 4127 ft 231 kts 342°
2026-05-07 19:37 51.40845 -0.78196 4231 ft 233 kts
2026-05-07 19:37 51.42487 -0.78158 4135 ft 235 kts
2026-05-07 19:37 51.44104 -0.78175 3801 ft 235 kts
2026-05-07 19:38 51.45695 -0.77884 3424 ft 231 kts 27°
2026-05-07 19:38 51.46869 -0.76334 3118 ft 215 kts 56°
2026-05-07 19:38 51.47626 -0.74475 2736 ft 200 kts 73°
2026-05-07 19:38 51.47859 -0.72360 2471 ft 188 kts 92°
2026-05-07 19:39 51.47810 -0.70261 1973 ft 190 kts 98°
2026-05-07 19:39 51.47655 -0.68180 1895 ft 185 kts 95°
2026-05-07 19:39 51.47655 -0.66068 1928 ft 188 kts 89°
2026-05-07 19:39 51.47696 -0.63981 1865 ft 189 kts 91°
2026-05-07 19:40 51.47710 -0.61895 1797 ft 188 kts 91°
2026-05-07 19:40 51.47700 -0.59786 1533 ft 187 kts 93°
2026-05-07 19:40 51.47700 -0.57671 1225 ft 188 kts 91°
2026-05-07 19:40 51.47723 -0.55611 982 ft 186 kts 89°
2026-05-07 19:41 51.47736 -0.53533 742 ft 185 kts 90°
2026-05-07 19:41 51.47744 -0.51466 436 ft 185 kts 91°
2026-05-07 19:41 51.47752 -0.49427 191 ft 185 kts 91°
2026-05-07 19:41 51.47758 -0.47432 93 ft 166 kts 92°
2026-05-07 19:42 51.47760 -0.45725 86 ft 132 kts 89°
2026-05-07 19:42 51.47760 -0.44881 94 ft 55 kts 88°
2026-05-07 19:42 51.47733 -0.44503 94 ft 17 kts 110°
2026-05-07 19:42 51.47700 -0.44385 94 ft 9 kts 114°
2026-05-07 19:43 51.47675 -0.44306 94 ft 6 kts 126°
2026-05-07 19:43 51.47651 -0.44253 93 ft 5 kts 136°
2026-05-07 19:43 51.47636 -0.44236 92 ft 0 kts 151°
2026-05-07 19:44 51.47623 -0.44225 92 ft 6 kts 150°
2026-05-07 19:44 51.47596 -0.44180 91 ft 5 kts 116°
2026-05-07 19:44 51.47591 -0.44131 90 ft 4 kts 89°
2026-05-07 19:44 51.47586 -0.44088 89 ft 3 kts 111°
2026-05-07 19:45 51.47560 -0.44056 89 ft 8 kts 169°
2026-05-07 19:45 51.47509 -0.44057 89 ft 5 kts 181°
2026-05-07 19:45 51.47456 -0.44059 88 ft 11 kts 180°
2026-05-07 19:45 51.47372 -0.44058 87 ft 11 kts 178°
2026-05-07 19:46 51.47306 -0.44057 87 ft 7 kts 179°
2026-05-07 19:46 51.47269 -0.44056 88 ft 4 kts 179°
2026-05-07 19:46 51.47205 -0.44056 89 ft 13 kts 179°
2026-05-07 19:46 51.47103 -0.44056 90 ft 14 kts 179°
2026-05-07 19:47 51.47011 -0.44055 90 ft 11 kts 178°
2026-05-07 19:47 51.46938 -0.44053 90 ft 8 kts 180°
2026-05-07 19:47 51.46886 -0.44052 90 ft 6 kts 179°
2026-05-07 19:47 51.46825 -0.44052 90 ft 13 kts 180°
2026-05-07 19:48 51.46737 -0.44051 90 ft 11 kts 180°
2026-05-07 19:48 51.46666 -0.44053 89 ft 9 kts 180°
2026-05-07 19:48 51.46634 -0.44053 89 ft 0 kts 180°
2026-05-07 19:50 51.46629 -0.44053 89 ft 3 kts 180°
2026-05-07 19:50 51.46533 -0.44054 88 ft 19 kts 182°
2026-05-07 19:50 51.46410 -0.44113 87 ft 16 kts 207°
2026-05-07 19:51 51.46368 -0.44149 88 ft 0 kts 209°
2026-05-07 19:51 51.46356 -0.44163 88 ft 7 kts 219°
2026-05-07 19:52 51.46326 -0.44307 88 ft 19 kts 266°
2026-05-07 19:52 51.46324 -0.44544 88 ft 19 kts 268°
2026-05-07 19:52 51.46267 -0.44710 88 ft 16 kts 223°
2026-05-07 19:52 51.46191 -0.44821 88 ft 13 kts 221°
2026-05-07 19:53 51.46132 -0.44907 88 ft 9 kts 221°
2026-05-07 19:53 51.46093 -0.44965 88 ft 6 kts 219°
2026-05-07 19:53 51.46065 -0.44963 88 ft 3 kts 133°
2026-05-07 19:53 51.46044 -0.44924 89 ft 4 kts 129°
2026-05-07 19:54 51.46034 -0.44905 89 ft 0 kts 135°
2026-05-07 19:54 51.46027 -0.44893 90 ft 2 kts 131°
2026-05-07 19:54 51.46025 -0.44890 90 ft 0 kts 130°